Crumpler, NC

1:45 AM EST on February 27, 2017 (GMT -0500)
Ashe County

Weather History for KGEV - January, 2010

Change the Weather History Date:

Saturday, January 9, 2010

  Actual Average Record
Temperature  
Mean Temperature 18 °F -  
Max Temperature 23 °F 42 °F 60 °F (1975)
Min Temperature 12 °F 20 °F -8 °F (1970)
Degree Days  
Heating Degree Days 48    
Moisture  
Dew Point 4 °F    
Average Humidity 62    
Maximum Humidity 73    
Minimum Humidity 43    
Precipitation  
Precipitation 0.00 in - - ()
Sea Level Pressure  
Sea Level Pressure 30.07 in    
Wind  
Wind Speed 10 mph (NW)    
Max Wind Speed 17 mph    
Max Gust Speed 26 mph    
Visibility 9 miles    
Events Snow    
Averages and records for this station are not official NWS values.
T = Trace of Precipitation, MM = Missing Value Source: NWS Daily Summary

Daily Weather History Graph

Daily Weather History Graph

Search for Another Location

Airport or City:

Trip Planner

Search our weather history database for the weather conditions in past years. The results will help you decide how hot, cold, wet, or windy it might be!

Date:

Astronomy

Jan. 09, 2010 Rise Set
Actual Time 7:37 AM EST 5:28 PM EST
Civil Twilight 7:09 AM EST 5:56 PM EST
Nautical Twilight 6:37 AM EST 6:28 PM EST
Astronomical Twilight 6:06 AM EST 6:59 PM EST
Moon 2:45 AM EST (1/9) 12:54 PM EST (1/9)
Length of Visible Light 10h 47m
Length of Day
9h 50m
Waning Crescent, 27% of the Moon is Illuminated
Jan 9
Waning Crescent
Jan 15
New
Jan 23
First Quarter
Jan 30
Full
Feb 5
Last Quarter

Hourly Weather History & Observations

Time (EST) Temp. Windchill Dew Point Humidity Pressure Visibility Wind Dir Wind Speed Gust Speed Precip Events Conditions
12:01 AM 12.2 °F 2.9 °F 3.2 °F 67% 30.02 in 10.0 mi WNW 5.8 mph - N/A   Clear
12:21 AM 12.2 °F -3.7 °F 3.2 °F 67% 30.01 in 7.0 mi WNW 15.0 mph 25.3 mph N/A   Clear
12:41 AM 12.2 °F 6.1 °F 3.2 °F 67% 30.01 in 10.0 mi NNE 3.5 mph - N/A   Clear
1:01 AM 12.2 °F 0.7 °F 3.2 °F 67% 30.01 in 10.0 mi WNW 8.1 mph - N/A   Clear
1:21 AM 12.2 °F 4.3 °F 3.2 °F 67% 30.02 in 10.0 mi SSW 4.6 mph - N/A   Clear
1:41 AM 12.2 °F -1.0 °F 3.2 °F 67% 30.02 in 10.0 mi NW 10.4 mph 18.4 mph N/A   Clear
2:01 AM 12.2 °F -2.5 °F 3.2 °F 67% 30.02 in 10.0 mi WNW 12.7 mph 19.6 mph N/A Snow Light Snow
2:21 AM 12.2 °F -2.5 °F 3.2 °F 67% 30.03 in 7.0 mi WNW 12.7 mph 18.4 mph N/A Snow Light Snow
2:41 AM 12.2 °F -3.7 °F 3.2 °F 67% 30.03 in 7.0 mi NW 15.0 mph 26.5 mph N/A Snow Light Snow
3:01 AM 12.2 °F -1.0 °F 3.2 °F 67% 30.04 in 7.0 mi NW 10.4 mph 16.1 mph N/A Snow Light Snow
3:21 AM 12.2 °F -0.2 °F 5.0 °F 73% 30.04 in 7.0 mi NNW 9.2 mph 19.6 mph N/A Snow Light Snow
3:41 AM 12.2 °F -1.0 °F 5.0 °F 73% 30.03 in 5.0 mi WNW 10.4 mph 23.0 mph N/A Snow Light Snow
4:01 AM 12.2 °F -4.3 °F 5.0 °F 73% 30.02 in 5.0 mi WNW 16.1 mph 23.0 mph N/A Snow Light Snow
4:21 AM 12.2 °F 0.7 °F 5.0 °F 73% 30.02 in 7.0 mi WNW 8.1 mph 21.9 mph N/A Snow Light Snow
4:41 AM 12.2 °F -3.1 °F 5.0 °F 73% 30.02 in 7.0 mi NW 13.8 mph 23.0 mph N/A Snow Light Snow
5:01 AM 12.2 °F -1.0 °F 3.2 °F 67% 30.03 in 10.0 mi NW 10.4 mph 20.7 mph N/A Snow Light Snow
5:21 AM 12.2 °F -1.8 °F 3.2 °F 67% 30.03 in 10.0 mi NW 11.5 mph 18.4 mph N/A Snow Light Snow
5:41 AM 12.2 °F -1.0 °F 3.2 °F 67% 30.04 in 10.0 mi NNW 10.4 mph 20.7 mph N/A   Clear
6:04 AM 12.2 °F -1.8 °F 3.2 °F 67% 30.04 in 10.0 mi NNW 11.5 mph 17.3 mph N/A   Clear
6:21 AM 12.2 °F 0.7 °F 3.2 °F 67% 30.05 in 10.0 mi North 8.1 mph 20.7 mph N/A   Mostly Cloudy
6:41 AM 12.2 °F 2.9 °F 3.2 °F 67% 30.06 in 7.0 mi NNW 5.8 mph - N/A Snow Light Snow
7:01 AM 12.2 °F -1.8 °F 5.0 °F 73% 30.06 in 10.0 mi WNW 11.5 mph 18.4 mph N/A   Scattered Clouds
7:21 AM 14.0 °F 0.5 °F 5.0 °F 67% 30.06 in 10.0 mi NW 11.5 mph 23.0 mph N/A Snow Light Snow
7:41 AM 14.0 °F 0.5 °F 5.0 °F 67% 30.07 in 10.0 mi NW 11.5 mph 21.9 mph N/A   Scattered Clouds
8:01 AM 14.0 °F -2.5 °F 3.2 °F 62% 30.07 in 10.0 mi WNW 17.3 mph 24.2 mph N/A   Clear
8:22 AM 14.0 °F 3.9 °F 3.2 °F 62% 30.08 in 10.0 mi NW 6.9 mph 18.4 mph N/A   Clear
8:41 AM 15.8 °F 4.2 °F 3.2 °F 58% 30.08 in 10.0 mi WNW 9.2 mph 16.1 mph N/A   Clear
9:01 AM 15.8 °F 2.7 °F 3.2 °F 58% 30.09 in 10.0 mi WNW 11.5 mph 17.3 mph N/A   Clear
9:21 AM 15.8 °F 3.4 °F 3.2 °F 58% 30.10 in 10.0 mi NNW 10.4 mph 17.3 mph N/A   Clear
9:41 AM 15.8 °F 3.4 °F 3.2 °F 58% 30.11 in 10.0 mi NNW 10.4 mph 16.1 mph N/A   Clear
10:02 AM 15.8 °F 3.4 °F 3.2 °F 58% 30.12 in 10.0 mi NW 10.4 mph 17.3 mph N/A   Clear
10:21 AM 17.6 °F 7.3 °F 3.2 °F 53% 30.12 in 10.0 mi NNW 8.1 mph - N/A   Clear
10:41 AM 17.6 °F 5.7 °F 5.0 °F 58% 30.13 in 10.0 mi NW 10.4 mph - N/A   Clear
11:01 AM 19.4 °F 8.6 °F 5.0 °F 54% 30.13 in 10.0 mi NW 9.2 mph 17.3 mph N/A   Clear
11:21 AM 19.4 °F 6.6 °F 5.0 °F 54% 30.12 in 10.0 mi WNW 12.7 mph 17.3 mph N/A   Clear
11:41 AM 19.4 °F 6.6 °F 5.0 °F 54% 30.12 in 10.0 mi WNW 12.7 mph - N/A   Clear
12:01 PM 21.2 °F 9.5 °F 5.0 °F 50% 30.11 in 10.0 mi NW 11.5 mph 16.1 mph N/A   Clear
12:21 PM 21.2 °F 10.9 °F 5.0 °F 50% 30.10 in 10.0 mi NW 9.2 mph 16.1 mph N/A   Mostly Cloudy
12:41 PM 21.2 °F 12.6 °F 5.0 °F 50% 30.09 in 10.0 mi NW 6.9 mph 19.6 mph N/A   Mostly Cloudy
1:01 PM 21.2 °F 10.1 °F 5.0 °F 50% 30.07 in 10.0 mi NNW 10.4 mph 20.7 mph N/A   Scattered Clouds
1:21 PM 21.2 °F 10.1 °F 3.2 °F 46% 30.06 in 10.0 mi NNW 10.4 mph 19.6 mph N/A   Clear
1:41 PM 23.0 °F 12.4 °F 3.2 °F 43% 30.05 in 10.0 mi NNW 10.4 mph 16.1 mph N/A   Scattered Clouds
2:01 PM 21.2 °F 11.7 °F 3.2 °F 46% 30.05 in 10.0 mi NNW 8.1 mph 17.3 mph N/A   Scattered Clouds
2:21 PM 21.2 °F 9.5 °F 3.2 °F 46% 30.05 in 10.0 mi NW 11.5 mph - N/A   Clear
2:41 PM 21.2 °F 10.9 °F 5.0 °F 50% 30.05 in 10.0 mi NW 9.2 mph - N/A   Scattered Clouds
3:01 PM 21.2 °F 10.9 °F 5.0 °F 50% 30.06 in 10.0 mi NW 9.2 mph - N/A   Overcast
3:21 PM 21.2 °F 10.9 °F 5.0 °F 50% 30.07 in 10.0 mi NW 9.2 mph 18.4 mph N/A   Overcast
3:41 PM 19.4 °F 5.5 °F 5.0 °F 54% 30.06 in 10.0 mi NW 15.0 mph 19.6 mph N/A   Scattered Clouds
4:01 PM 19.4 °F 5.5 °F 5.0 °F 54% 30.07 in 10.0 mi NW 15.0 mph 23.0 mph N/A   Scattered Clouds
4:21 PM 17.6 °F 3.7 °F 5.0 °F 58% 30.08 in 10.0 mi NW 13.8 mph 23.0 mph N/A   Mostly Cloudy
4:41 PM 17.6 °F 5.7 °F 5.0 °F 58% 30.09 in 10.0 mi NW 10.4 mph 21.9 mph N/A   Overcast
5:02 PM 15.8 °F 3.4 °F 6.8 °F 68% 30.09 in 10.0 mi NW 10.4 mph 19.6 mph N/A Snow Light Snow
5:21 PM 15.8 °F 4.2 °F 6.8 °F 68% 30.09 in 10.0 mi NW 9.2 mph 19.6 mph N/A Snow Light Snow
5:41 PM 15.8 °F 2.7 °F 6.8 °F 68% 30.09 in 10.0 mi NW 11.5 mph 20.7 mph N/A Snow Light Snow
6:01 PM 15.8 °F 5.1 °F 6.8 °F 68% 30.09 in 10.0 mi NW 8.1 mph 20.7 mph N/A Snow Light Snow
6:21 PM 15.8 °F 2.7 °F 6.8 °F 68% 30.09 in 10.0 mi NNW 11.5 mph 18.4 mph N/A   Overcast
6:41 PM 15.8 °F 2.1 °F 6.8 °F 68% 30.10 in 7.0 mi NW 12.7 mph 17.3 mph N/A Snow Light Snow
7:01 PM 15.8 °F 2.7 °F 6.8 °F 68% 30.10 in 5.0 mi NNW 11.5 mph 16.1 mph N/A Snow Light Snow
7:21 PM 15.8 °F 2.1 °F 6.8 °F 68% 30.11 in 5.0 mi NNW 12.7 mph 17.3 mph N/A Snow Light Snow
7:41 PM 14.0 °F -0.2 °F 6.8 °F 73% 30.11 in 7.0 mi NW 12.7 mph 18.4 mph N/A Snow Light Snow
8:01 PM 14.0 °F 2.0 °F 6.8 °F 73% 30.12 in 7.0 mi NW 9.2 mph 17.3 mph N/A Snow Light Snow
8:21 PM 14.0 °F 1.2 °F 6.8 °F 73% 30.12 in 10.0 mi NW 10.4 mph 18.4 mph N/A Snow Light Snow
8:43 PM 14.0 °F 0.5 °F 6.8 °F 73% 30.12 in 10.0 mi NW 11.5 mph - N/A Snow Light Snow
9:01 PM 14.0 °F 2.0 °F 6.8 °F 73% 30.13 in 10.0 mi NNW 9.2 mph - N/A Snow Light Snow
9:21 PM 14.0 °F 1.2 °F 6.8 °F 73% 30.12 in 10.0 mi NNW 10.4 mph 20.7 mph N/A Snow Light Snow
9:41 PM 14.0 °F 1.2 °F 6.8 °F 73% 30.13 in 7.0 mi NNW 10.4 mph 18.4 mph N/A Snow Light Snow
10:01 PM 14.0 °F 1.2 °F 6.8 °F 73% 30.13 in 10.0 mi NW 10.4 mph 17.3 mph N/A Snow Light Snow
10:21 PM 14.0 °F 3.9 °F 6.8 °F 73% 30.13 in 10.0 mi NNW 6.9 mph - N/A Snow Light Snow
10:41 PM 14.0 °F -0.2 °F 6.8 °F 73% 30.13 in 10.0 mi NNW 12.7 mph 17.3 mph N/A Snow Light Snow
11:01 PM 14.0 °F 2.9 °F 6.8 °F 73% 30.13 in 10.0 mi NNW 8.1 mph - N/A Snow Light Snow
11:21 PM 14.0 °F 1.2 °F 6.8 °F 73% 30.13 in 10.0 mi NNW 10.4 mph - N/A Snow Light Snow
11:41 PM 14.0 °F -0.2 °F 6.8 °F 73% 30.14 in 10.0 mi NNW 12.7 mph 20.7 mph N/A Snow Light Snow